[[{"header":{"parameterUnit":"m.s-1","parameterCategory":1,"la1":30.2991,"la2":30.254,"lo1":-89.0895,"lo2":-89.0444,"dy":0.0017,"dx":0.0017,"nx":28,"ny":28,"refTime":"2023-08-16T09:00:00:Z","depth":0,"parameterNumber":2,"parameterNumberName":"U-component_of_WINDS"},"data":[0,0,0,0,0,0,0,0,0,0,0,0,0,0,0,0,0,0,0,0,0,0,0,0,0,0,0,0,0,0,0,0,0,0,0,0,0,0,0,0,0,0,0,0,0,0,0,0,0,0,0,0,0,0,0,0,0,0,1.2669,1.2669,0,1.2671,1.2671,1.2671,1.2649,1.2648,1.2647,1.2647,1.2648,1.2649,1.2649,0,0,0,0,0,0,0,0,0,0,0,0,0,1.2645,1.2646,1.2669,1.2669,1.2669,1.2671,1.2671,1.2671,1.2649,1.2648,1.2647,1.2646,1.2648,1.2649,1.2649,0,0,0,0,0,0,0,0,0,0,0,0,0,1.2652,1.2646,1.2669,1.2658,1.2657,1.2671,1.2671,1.2671,1.2649,1.2648,1.2647,1.2646,1.2648,1.2649,1.2649,1.2673,0,0,1.2652,1.2653,0,0,0,0,0,0,0,0,1.2652,1.2653,1.266,1.2659,1.2658,1.2658,1.2663,1.2672,1.2649,1.2652,1.2647,1.2646,1.2652,1.2653,1.2655,1.2673,1.2673,1.2652,1.2653,1.2653,1.2654,0,0,0,0,0,0,0,1.2651,1.2653,1.267,1.266,1.2659,1.2653,1.2653,1.2664,1.2657,1.2652,1.265,1.2651,1.2652,1.2654,1.2655,1.2673,1.2652,1.2653,1.2654,1.2654,1.271,1.2711,0,0,0,0,0,0,1.2652,1.2653,1.267,1.267,1.2653,1.2654,1.2654,1.2659,1.2657,1.2656,1.2651,1.265,1.2653,1.2654,1.2655,1.2681,1.2653,1.2654,1.2655,1.2709,1.271,1.2711,0,0,0,0,0,0,1.2652,1.2654,1.267,1.2661,1.2662,1.2655,1.2661,1.266,1.2662,1.2657,1.2655,1.2655,1.2652,1.2654,1.2669,1.2681,1.2655,1.2655,1.2708,1.2709,1.271,1.2735,0,0,0,0,0,0,1.2651,1.2654,1.2663,1.2661,1.2663,1.2683,1.2662,1.266,1.2664,1.2662,1.266,1.2659,1.2652,1.2667,1.2669,1.2682,1.2656,1.2707,1.2708,1.271,1.2733,1.2737,1.274,0,0,0,0,0,1.2651,1.267,1.2664,1.2666,1.2674,1.2684,1.2685,1.2676,1.2665,1.2674,1.267,1.2659,1.268,1.2669,1.2671,1.2684,1.2706,1.2708,1.271,1.2731,1.2736,1.274,0,0,0,0,0,0,1.2674,1.267,1.2663,1.2682,1.2684,1.268,1.2691,1.2682,1.2687,1.2684,1.2673,1.2673,1.269,1.2689,1.2677,1.2706,1.2691,1.2693,1.2706,1.2711,1.2714,1.2713,1.2657,0,0,0,0,0,1.2682,1.2691,1.2686,1.2704,1.2705,1.2698,1.2702,1.2696,1.2696,1.2697,1.2694,1.2696,1.2702,1.2707,1.2712,1.2733,1.2732,1.2743,1.2747,1.275,1.2752,1.2761,1.2765,1.2718,1.2718,1.2718,0,0,1.2697,1.2696,1.2702,1.2709,1.2709,1.2718,1.2699,1.2709,1.2715,1.2698,1.2712,1.271,1.2711,1.2728,1.2736,1.2728,1.2765,1.2752,1.2755,1.2755,1.2763,1.2768,1.2772,1.2719,1.2719,1.2719,0,0,1.273,1.273,1.2744,1.2745,1.2745,1.2741,1.2744,1.2742,1.274,1.2754,1.2741,1.2748,1.276,1.276,1.2762,1.2794,1.2783,1.2797,1.2815,1.2824,1.2828,1.2831,1.2841,1.2845,1.2799,1.2799,1.2799,0,1.2749,1.2761,1.2753,1.2763,1.2766,1.2751,1.2765,1.2766,1.2769,1.277,1.2762,1.2776,1.2775,1.2792,1.2799,1.2802,1.2804,1.2796,1.2828,1.2832,1.2834,1.2843,1.2847,1.28,1.28,1.28,1.28,0,1.2784,1.2793,1.2804,1.2806,1.281,1.2823,1.2815,1.282,1.2813,1.2809,1.2823,1.2822,1.2826,1.283,1.2824,1.2845,1.284,1.283,1.2814,1.284,1.2849,1.2852,1.2802,1.2802,1.2801,1.2801,0,0,1.283,1.2827,1.2831,1.2831,1.2831,1.2837,1.2849,1.2853,1.2857,1.286,1.2868,1.2878,1.2869,1.2871,1.2864,1.2873,1.2896,1.2861,1.2861,1.2866,1.2918,1.2924,1.2928,1.289,1.289,1.2891,1.2917,0,1.286,1.2878,1.287,1.289,1.2897,1.2883,1.2893,1.2893,1.289,1.2896,1.2892,1.2899,1.2887,1.2888,1.2895,1.2891,1.2906,1.289,1.2896,1.2896,1.2894,1.2933,1.2939,1.2964,1.2921,1.2921,1.2922,0,1.2897,1.29,1.292,1.2917,1.2919,1.2928,1.2931,1.2937,1.2937,1.2934,1.2936,1.2928,1.2938,1.2923,1.2936,1.2926,1.2928,1.2926,1.2927,1.2926,1.2909,1.2931,1.2972,1.2975,1.2927,1.2926,1.2926,0,1.2926,1.2935,1.2948,1.2949,1.2946,1.2953,1.2952,1.2951,1.2954,1.2957,1.2958,1.2962,1.2964,1.2967,1.296,1.295,1.2974,1.2959,1.297,1.297,1.2974,1.2974,1.3015,1.2979,1.2979,1.2979,1.2979,0,1.2958,1.297,1.2961,1.2968,1.2981,1.2972,1.2985,1.2983,1.2982,1.2989,1.2978,1.2984,1.2975,1.298,1.2975,1.2986,1.2987,1.2984,1.2982,1.2984,1.2984,1.2984,1.2981,1.298,1.298,1.298,1.2979,0,1.2992,1.2987,1.2999,1.2996,1.2995,1.3004,1.3001,1.3008,1.3004,1.3012,1.3014,1.3007,1.3013,1.3006,1.3012,1.3008,1.3022,1.3018,1.3022,1.302,1.3031,1.3029,1.3072,1.3076,1.3039,1.304,1.304,0,1.3013,1.3021,1.3019,1.3022,1.3022,1.3028,1.3031,1.3023,1.3026,1.3026,1.3032,1.3037,1.304,1.305,1.3045,1.3049,1.3044,1.3059,1.3044,1.3046,1.3042,1.3041,1.3041,1.3061,1.3062,1.3062,1.3062,0,1.3049,1.3045,1.3049,1.3052,1.3056,1.3058,1.3059,1.3063,1.3054,1.3058,1.3064,1.3066,1.3071,1.3075,1.3078,1.3077,1.3067,1.3067,1.3069,1.307,1.3071,1.3069,1.3027,1.3066,1.3065,1.3065,1.3065,1.3065,1.3075,1.3082,1.308,1.3085,1.3085,1.3087,1.3092,1.3089,1.3093,1.3096,1.3091,1.3098,1.3097,1.3099,1.3099,1.3104,1.3097,1.3101,1.3102,1.3103,1.3104,1.3072,1.3104,1.3104,1.3104,1.3104,1.3104,0,1.3109,1.3107,1.3112,1.3114,1.3117,1.3109,1.311,1.3113,1.3119,1.3119,1.3122,1.3128,1.3132,1.3128,1.3131,1.3136,1.3131,1.3136,1.3135,1.3135,1.311,1.3107,1.314,1.314,1.314,1.314,1.314,1.314,1.3127,1.3137,1.3133,1.3143,1.3141,1.3147,1.3148,1.3149,1.3149,1.3156,1.3159,1.3156,1.3155,1.3157,1.3161,1.3159,1.316,1.3166,1.3163,1.314,1.3137,1.3133,1.313,1.3167,1.3167,1.3187,1.3188,1.3188]},{"header":{"parameterUnit":"m.s-1","parameterCategory":1,"la1":30.2991,"la2":30.254,"lo1":-89.0895,"lo2":-89.0444,"dy":0.0017,"dx":0.0017,"nx":28,"ny":28,"refTime":"2023-08-16T09:00:00:Z","depth":0,"parameterNumber":3,"parameterNumberName":"V-component_of_WINDS"},"data":[0,0,0,0,0,0,0,0,0,0,0,0,0,0,0,0,0,0,0,0,0,0,0,0,0,0,0,0,0,0,0,0,0,0,0,0,0,0,0,0,0,0,0,0,0,0,0,0,0,0,0,0,0,0,0,0,0,0,0.2821,0.282,0,0.2751,0.275,0.275,0.2659,0.2657,0.2656,0.2654,0.2584,0.2584,0.2583,0,0,0,0,0,0,0,0,0,0,0,0,0,0.2876,0.2876,0.2821,0.282,0.2819,0.2751,0.275,0.2749,0.2659,0.2657,0.2655,0.2654,0.2584,0.2584,0.2583,0,0,0,0,0,0,0,0,0,0,0,0,0,0.2834,0.2876,0.2821,0.2766,0.276,0.2752,0.275,0.2749,0.2659,0.2657,0.2655,0.2653,0.2585,0.2584,0.2583,0.2623,0,0,0.2581,0.2581,0,0,0,0,0,0,0,0,0.2837,0.2832,0.2775,0.277,0.2763,0.2711,0.2744,0.2707,0.266,0.2698,0.2654,0.2652,0.2628,0.2624,0.2616,0.262,0.2617,0.2581,0.258,0.258,0.258,0,0,0,0,0,0,0,0.284,0.2835,0.2793,0.2774,0.2767,0.2745,0.2736,0.2737,0.2677,0.2694,0.2688,0.268,0.2625,0.2617,0.2613,0.2616,0.2581,0.258,0.258,0.258,0.2648,0.265,0,0,0,0,0,0,0.2851,0.2838,0.2796,0.2791,0.2795,0.2746,0.2736,0.273,0.2676,0.2666,0.2682,0.2677,0.2619,0.2614,0.2611,0.2653,0.258,0.2579,0.2579,0.2646,0.2648,0.2651,0,0,0,0,0,0,0.2852,0.2848,0.2798,0.2813,0.2805,0.2747,0.2741,0.273,0.2722,0.2667,0.2656,0.2685,0.2617,0.2612,0.262,0.265,0.2579,0.2578,0.2643,0.2647,0.265,0.274,0,0,0,0,0,0,0.2854,0.2849,0.2864,0.2814,0.2804,0.281,0.2743,0.273,0.2721,0.2712,0.2667,0.2657,0.2615,0.2622,0.262,0.2647,0.2578,0.264,0.2645,0.2649,0.2734,0.2746,0.2756,0,0,0,0,0,0.2857,0.2893,0.2865,0.286,0.2821,0.2812,0.2806,0.2757,0.2724,0.2738,0.2702,0.2659,0.2647,0.2624,0.262,0.2648,0.2638,0.2643,0.2648,0.2729,0.2743,0.2756,0,0,0,0,0,0,0.2949,0.2885,0.2854,0.2875,0.2849,0.2796,0.2813,0.2774,0.2757,0.275,0.2689,0.268,0.2696,0.2673,0.2648,0.2683,0.2636,0.264,0.2698,0.2712,0.2722,0.2728,0.2577,0,0,0,0,0,0.2971,0.2968,0.2913,0.2936,0.2925,0.2872,0.2865,0.2829,0.28,0.2789,0.2754,0.2729,0.2719,0.2714,0.2702,0.273,0.2718,0.2747,0.2758,0.2767,0.2772,0.2784,0.2797,0.2667,0.2667,0.2667,0,0,0.3018,0.2983,0.2985,0.2954,0.293,0.2928,0.2863,0.2864,0.2862,0.279,0.2795,0.2769,0.2736,0.2754,0.2761,0.2735,0.2805,0.2774,0.2782,0.2781,0.2791,0.2803,0.2814,0.2671,0.267,0.267,0,0,0.3102,0.3076,0.3092,0.3069,0.3033,0.2997,0.3001,0.2953,0.2933,0.2937,0.2882,0.2879,0.2864,0.2842,0.2829,0.2904,0.2863,0.2902,0.2959,0.2972,0.2982,0.2991,0.3017,0.3027,0.2906,0.2907,0.2907,0,0.3165,0.316,0.3105,0.311,0.3097,0.303,0.3046,0.3026,0.2989,0.2982,0.2954,0.2932,0.2905,0.2917,0.2935,0.2927,0.293,0.2907,0.2985,0.2993,0.3001,0.3025,0.3035,0.2912,0.2911,0.2911,0.291,0,0.3239,0.3237,0.3254,0.3219,0.3208,0.3219,0.3165,0.3161,0.3125,0.3092,0.3097,0.3062,0.3041,0.3041,0.3007,0.3048,0.3033,0.2996,0.2947,0.3019,0.3041,0.305,0.2919,0.2917,0.2915,0.2914,0,0,0.3381,0.3314,0.3321,0.3304,0.3258,0.3255,0.3262,0.3241,0.3239,0.3215,0.3219,0.3206,0.3171,0.3156,0.3119,0.313,0.319,0.3091,0.3089,0.311,0.3233,0.3262,0.3274,0.3162,0.3164,0.3165,0.3236,0,0.3457,0.3465,0.3415,0.3436,0.3432,0.3368,0.3373,0.3346,0.3315,0.3307,0.3272,0.3265,0.3219,0.3209,0.3217,0.3181,0.3214,0.3175,0.3166,0.3166,0.3177,0.3285,0.3315,0.3384,0.3244,0.3245,0.3246,0,0.3547,0.3527,0.3548,0.35,0.3497,0.3503,0.3479,0.3473,0.344,0.3416,0.34,0.3356,0.3358,0.3311,0.3314,0.3289,0.3282,0.3263,0.3265,0.3262,0.3211,0.3286,0.3405,0.3415,0.3259,0.3258,0.3257,0,0.3649,0.3627,0.3636,0.3623,0.3568,0.3574,0.3551,0.3516,0.3506,0.3485,0.3478,0.3458,0.3447,0.3433,0.3384,0.3355,0.3393,0.3342,0.3373,0.3375,0.3385,0.3385,0.3505,0.338,0.338,0.338,0.3379,0,0.3739,0.3754,0.368,0.3686,0.3701,0.3643,0.3659,0.363,0.3599,0.3598,0.3541,0.3541,0.3477,0.347,0.3432,0.344,0.3435,0.3416,0.3406,0.3421,0.3424,0.3416,0.3411,0.3382,0.3382,0.3381,0.3381,0,0.3855,0.3807,0.3812,0.3759,0.3746,0.3759,0.3713,0.3716,0.3681,0.368,0.3676,0.3621,0.3609,0.3559,0.3536,0.351,0.3531,0.3511,0.3542,0.3535,0.357,0.3567,0.3689,0.3702,0.3569,0.3571,0.3572,0,0.3917,0.3927,0.3874,0.3869,0.3848,0.3841,0.383,0.3773,0.3764,0.3727,0.3735,0.3718,0.3702,0.3687,0.3644,0.3626,0.3605,0.3649,0.3602,0.3617,0.3605,0.3606,0.3606,0.3659,0.3661,0.3662,0.3663,0,0.403,0.4005,0.3992,0.397,0.3959,0.3939,0.3916,0.3915,0.3851,0.3844,0.3831,0.3819,0.3794,0.3779,0.3753,0.3729,0.3686,0.3678,0.3684,0.3701,0.3719,0.3709,0.357,0.3676,0.3675,0.3674,0.3673,0.3673,0.4121,0.4126,0.409,0.4077,0.4053,0.4032,0.4032,0.3996,0.3984,0.3959,0.3926,0.3918,0.3883,0.3844,0.3824,0.3816,0.3792,0.3801,0.3803,0.3806,0.3814,0.3719,0.3811,0.381,0.381,0.381,0.3809,0,0.4232,0.4205,0.4193,0.4162,0.4151,0.411,0.4082,0.4076,0.4069,0.4041,0.4026,0.401,0.3995,0.395,0.393,0.3932,0.3912,0.3929,0.3928,0.3924,0.3837,0.3834,0.3946,0.3946,0.3946,0.3946,0.3946,0.3946,0.4288,0.4295,0.4266,0.426,0.4232,0.4223,0.421,0.4191,0.4168,0.4153,0.4139,0.411,0.4075,0.4052,0.4035,0.4022,0.4018,0.4042,0.4023,0.3943,0.393,0.3917,0.3914,0.4041,0.4041,0.411,0.411,0.4111]}]]